Location: Cartwright
(53.7070°N, 57.0233°W)
Time: 15:56:17
(UTC-03:-30)

X-37B - Visible Passes

Search period start: 02 December 2020 00:00
Search period end: 12 December 2020 00:00
Orbit: 384 x 390 km, 45.0° (Epoch: 26 November)

Date Brightness Start Highest point End Pass type
(mag) Time Alt. Az. Time Alt. Az. Time Alt. Az.
02 Dec 3.1 17:36:39 10° SSW 17:38:30 14° SSE 17:40:19 10° SE visible
02 Dec 3.7 19:12:13 10° SW 19:12:35 12° SW 19:12:35 12° SW visible
03 Dec 2.8 18:13:50 10° SW 18:16:03 17° S 18:16:39 17° SSE visible
04 Dec 3.0 17:15:36 10° SW 17:17:43 17° S 17:19:50 10° SE visible
04 Dec 3.3 18:51:39 10° SW 18:53:00 15° SSW 18:53:00 15° SSW visible
05 Dec 3.0 17:53:07 10° SW 17:55:17 17° S 17:57:09 11° SE visible
06 Dec 3.1 16:54:44 10° SW 16:56:56 17° S 16:59:09 10° SE visible
06 Dec 3.3 18:31:18 10° SW 18:32:48 13° SSW 18:33:38 12° S visible
07 Dec 3.3 17:32:33 10° SW 17:34:30 15° S 17:36:28 10° SSE visible
09 Dec 3.6 17:12:13 10° SW 17:13:42 13° SSW 17:15:11 10° S visible
